TimeCST,TemperatureF,Dew PointF,Humidity,Sea Level PressureIn,VisibilityMPH,Wind Direction,Wind SpeedMPH,Gust SpeedMPH,PrecipitationIn,Events,Conditions,WindDirDegrees,DateUTC
12:15 AM,23.0,23.0,100,29.49,0.2,North,4.6,-,N/A,Fog,Light Freezing Fog,350,2014-02-20 06:15:00
12:35 AM,23.0,23.0,100,29.50,3.0,NNE,4.6,-,N/A,,Mostly Cloudy,30,2014-02-20 06:35:00
12:55 AM,21.2,21.2,100,29.50,0.2,ENE,3.5,-,N/A,Fog,Light Freezing Fog,70,2014-02-20 06:55:00
1:15 AM,19.4,19.4,100,29.50,2.5,North,4.6,-,N/A,,Scattered Clouds,10,2014-02-20 07:15:00
1:35 AM,19.4,19.4,100,29.50,4.0,NE,3.5,-,N/A,,Mostly Cloudy,50,2014-02-20 07:35:00
1:55 AM,17.6,17.6,100,29.51,5.0,Calm,Calm,-,N/A,,Partly Cloudy,0,2014-02-20 07:55:00
2:15 AM,17.6,17.6,100,29.51,4.0,ESE,4.6,-,N/A,,Clear,110,2014-02-20 08:15:00
2:35 AM,15.8,15.8,100,29.51,3.0,Calm,Calm,-,N/A,,Clear,0,2014-02-20 08:35:00
2:55 AM,15.8,15.8,100,29.51,1.8,Calm,Calm,-,N/A,,Mostly Cloudy,0,2014-02-20 08:55:00
3:15 AM,15.8,15.8,100,29.51,2.0,ENE,3.5,-,N/A,,Overcast,70,2014-02-20 09:15:00
3:35 AM,15.8,15.8,100,29.51,3.0,Calm,Calm,-,N/A,,Overcast,0,2014-02-20 09:35:00
3:55 AM,17.6,17.6,100,29.50,5.0,Calm,Calm,-,N/A,,Mostly Cloudy,0,2014-02-20 09:55:00
4:15 AM,17.6,17.6,100,29.50,5.0,Calm,Calm,-,N/A,,Mostly Cloudy,0,2014-02-20 10:15:00
4:35 AM,17.6,17.6,100,29.50,7.0,WNW,3.5,-,N/A,,Partly Cloudy,290,2014-02-20 10:35:00
4:55 AM,15.8,15.8,100,29.50,4.0,West,4.6,-,N/A,,Clear,280,2014-02-20 10:55:00
5:15 AM,17.6,17.6,100,29.51,9.0,WSW,6.9,-,N/A,,Clear,250,2014-02-20 11:15:00
5:35 AM,17.6,17.6,100,29.50,8.0,West,5.8,-,N/A,,Clear,260,2014-02-20 11:35:00
5:55 AM,23.0,23.0,100,29.50,10.0,West,10.4,-,N/A,,Scattered Clouds,270,2014-02-20 11:55:00
6:15 AM,23.0,23.0,100,29.50,10.0,West,11.5,-,N/A,,Partly Cloudy,280,2014-02-20 12:15:00
6:35 AM,23.0,23.0,100,29.51,10.0,North,8.1,-,N/A,,Scattered Clouds,350,2014-02-20 12:35:00
6:55 AM,17.6,17.6,100,29.53,9.0,North,8.1,-,N/A,,Mostly Cloudy,10,2014-02-20 12:55:00
7:15 AM,15.8,15.8,100,29.55,1.5,North,11.5,-,N/A,,Overcast,360,2014-02-20 13:15:00
7:35 AM,15.8,15.8,100,29.58,2.0,North,12.7,17.3,N/A,,Overcast,350,2014-02-20 13:35:00
7:55 AM,14.0,12.2,93,29.59,5.0,NNW,17.3,-,N/A,Snow,Light Snow,340,2014-02-20 13:55:00
8:15 AM,12.2,12.2,100,29.61,3.0,NNW,15.0,-,0.01,Snow,Light Snow,340,2014-02-20 14:15:00
8:35 AM,14.0,12.2,93,29.63,4.0,NNW,9.2,-,0.03,Snow,Light Snow,330,2014-02-20 14:35:00
8:55 AM,14.0,12.2,93,29.64,2.5,NNW,16.1,19.6,0.05,Snow,Light Snow,330,2014-02-20 14:55:00
9:15 AM,10.4,8.6,92,29.65,5.0,NW,16.1,-,N/A,Snow,Light Snow,320,2014-02-20 15:15:00
9:35 AM,10.4,8.6,92,29.66,3.0,NNW,19.6,23.0,0.05,Snow,Light Snow,330,2014-02-20 15:35:00
9:55 AM,10.4,8.6,92,29.67,1.5,NNW,23.0,-,0.11,Snow,Light Snow,330,2014-02-20 15:55:00
10:15 AM,10.4,8.6,92,29.68,3.0,NW,25.3,29.9,N/A,Snow,Light Snow,320,2014-02-20 16:15:00
10:35 AM,8.6,6.8,92,29.70,5.0,NW,23.0,29.9,0.01,Snow,Light Snow,320,2014-02-20 16:35:00
10:55 AM,8.6,6.8,92,29.70,4.0,NW,20.7,28.8,0.01,Snow,Light Snow,320,2014-02-20 16:55:00
11:15 AM,8.6,6.8,92,29.71,5.0,NW,23.0,27.6,N/A,,Overcast,320,2014-02-20 17:15:00
11:35 AM,8.6,5.0,85,29.72,4.0,NW,20.7,-,N/A,Snow,Light Snow,320,2014-02-20 17:35:00
11:55 AM,8.6,6.8,92,29.73,3.0,NW,23.0,31.1,N/A,Snow,Light Snow,320,2014-02-20 17:55:00
12:15 PM,10.4,6.8,85,29.73,2.0,NW,23.0,32.2,N/A,Snow,Light Snow,320,2014-02-20 18:15:00
12:35 PM,10.4,6.8,85,29.74,5.0,NW,23.0,29.9,N/A,Snow,Light Snow,320,2014-02-20 18:35:00
12:55 PM,10.4,6.8,85,29.75,5.0,NW,25.3,29.9,N/A,Snow,Light Snow,310,2014-02-20 18:55:00
1:15 PM,10.4,6.8,85,29.74,5.0,NW,20.7,-,N/A,Snow,Light Snow,320,2014-02-20 19:15:00
1:35 PM,10.4,6.8,85,29.74,6.0,NW,19.6,26.5,N/A,Snow,Light Snow,320,2014-02-20 19:35:00
1:55 PM,12.2,8.6,85,29.74,5.0,NW,24.2,27.6,N/A,Snow,Light Snow,320,2014-02-20 19:55:00
2:15 PM,12.2,6.8,79,29.74,9.0,NW,23.0,28.8,N/A,,Overcast,320,2014-02-20 20:15:00
2:35 PM,12.2,8.6,85,29.74,7.0,NW,23.0,26.5,N/A,Snow,Light Snow,310,2014-02-20 20:35:00
2:55 PM,14.0,8.6,79,29.74,9.0,NW,20.7,-,N/A,,Overcast,320,2014-02-20 20:55:00
3:15 PM,12.2,8.6,85,29.74,6.0,NW,25.3,31.1,N/A,Snow,Light Snow,310,2014-02-20 21:15:00
3:35 PM,12.2,6.8,79,29.74,10.0,NW,26.5,32.2,N/A,,Overcast,320,2014-02-20 21:35:00
3:55 PM,12.2,6.8,79,29.74,10.0,NW,26.5,31.1,N/A,,Overcast,320,2014-02-20 21:55:00
4:15 PM,12.2,6.8,79,29.75,10.0,NW,23.0,31.1,N/A,,Overcast,310,2014-02-20 22:15:00
4:35 PM,12.2,6.8,79,29.75,10.0,NW,20.7,25.3,N/A,,Overcast,310,2014-02-20 22:35:00
4:55 PM,10.4,6.8,85,29.75,10.0,NW,20.7,24.2,N/A,,Scattered Clouds,310,2014-02-20 22:55:00
5:15 PM,10.4,6.8,85,29.76,10.0,NW,20.7,-,N/A,,Scattered Clouds,310,2014-02-20 23:15:00
5:35 PM,10.4,6.8,85,29.76,10.0,NW,17.3,-,N/A,,Mostly Cloudy,310,2014-02-20 23:35:00
5:55 PM,10.4,5.0,79,29.77,10.0,NW,17.3,23.0,N/A,,Mostly Cloudy,310,2014-02-20 23:55:00
6:15 PM,8.6,5.0,85,29.77,10.0,NW,18.4,-,N/A,,Scattered Clouds,310,2014-02-21 00:15:00
6:35 PM,8.6,5.0,85,29.77,10.0,NW,18.4,-,N/A,,Clear,310,2014-02-21 00:35:00
6:55 PM,8.6,3.2,79,29.77,10.0,NW,18.4,-,N/A,,Clear,310,2014-02-21 00:55:00
7:15 PM,6.8,3.2,85,29.78,10.0,NW,15.0,-,N/A,,Clear,310,2014-02-21 01:15:00
7:35 PM,6.8,1.4,79,29.77,10.0,NW,17.3,21.9,N/A,,Clear,310,2014-02-21 01:35:00
7:55 PM,5.0,1.4,85,29.77,10.0,NW,13.8,-,N/A,,Clear,320,2014-02-21 01:55:00
8:15 PM,5.0,1.4,85,29.76,10.0,NW,17.3,-,N/A,,Clear,310,2014-02-21 02:15:00
8:35 PM,5.0,-0.4,78,29.75,10.0,NW,18.4,-,N/A,,Clear,310,2014-02-21 02:35:00
8:55 PM,5.0,-0.4,78,29.74,10.0,NW,18.4,-,N/A,,Clear,320,2014-02-21 02:55:00
9:15 PM,3.2,-0.4,85,29.74,10.0,NW,18.4,-,N/A,,Clear,320,2014-02-21 03:15:00
9:35 PM,1.4,-0.4,92,29.74,10.0,NW,18.4,-,N/A,,Clear,310,2014-02-21 03:35:00
9:55 PM,1.4,-0.4,92,29.74,10.0,NW,19.6,-,N/A,,Clear,320,2014-02-21 03:55:00
10:15 PM,1.4,-0.4,92,29.74,10.0,NW,18.4,-,N/A,,Clear,310,2014-02-21 04:15:00
10:35 PM,1.4,-2.2,85,29.74,10.0,NW,18.4,-,N/A,,Clear,320,2014-02-21 04:35:00
10:55 PM,1.4,-2.2,85,29.74,10.0,NW,17.3,-,N/A,,Clear,310,2014-02-21 04:55:00
11:15 PM,1.4,-2.2,85,29.74,10.0,NW,17.3,-,N/A,,Clear,310,2014-02-21 05:15:00
11:35 PM,-0.4,-2.2,92,29.74,10.0,NW,18.4,-,N/A,,Clear,310,2014-02-21 05:35:00
11:55 PM,-0.4,-4.0,85,29.74,10.0,NW,17.3,-,N/A,,Clear,310,2014-02-21 05:55:00